KJ7AZ-3 Weather Reports


Display with metric or nautical units.
time (UTC)temp
F
wind
direction
speed
MPH
gust
MPH
rain 1hr
in
rain 24hr
in
rain mn
in
humidity
%
barometer
mb
20260506143618 57 174 0.0 0.0 0.00 0.00 0.00
20260506142120 54 174 0.0 0.0 0.00 0.00 0.00
20260506140621 48 174 0.0 0.0 0.00 0.00 0.00
20260506135123 41 174 0.0 0.0 0.00 0.00 0.00
20260506133624 40 174 0.0 0.0 0.00 0.00 0.00
20260506130626 40 174 0.0 0.0 0.00 0.00 0.00
20260506125128 41 174 0.0 0.0 0.00 0.00 0.00
20260506123629 42 174 0.0 0.0 0.00 0.00 0.00
20260506122131 39 174 0.0 0.0 0.00 0.00 0.00
20260506120632 38 174 0.0 0.0 0.00 0.00 0.00
20260506115133 39 174 0.0 0.0 0.00 0.00 0.00
20260506113634 39 174 0.0 0.0 0.00 0.00 0.00
20260506112135 38 174 0.0 0.0 0.00 0.00 0.00
20260506105137 40 174 0.0 0.0 0.00 0.00 0.00
20260506102140 41 174 0.0 0.0 0.00 0.00 0.00
20260506100641 39 174 0.0 0.0 0.00 0.00 0.00
20260506095142 41 174 0.0 0.0 0.00 0.00 0.00
20260506093643 43 174 0.0 0.0 0.00 0.00 0.00
20260506092145 45 174 0.0 0.0 0.00 0.00 0.00
20260506090646 47 174 0.0 0.0 0.00 0.00 0.00
20260506085147 47 174 0.0 0.0 0.00 0.00 0.00
20260506083648 48 215 0.0 0.0 0.00 0.00 0.00
20260506082149 48 193 0.0 0.0 0.00 0.00 0.00
20260506080650 48 193 0.0 0.0 0.00 0.00 0.00
20260506072153 49 193 0.0 0.0 0.00 0.00 0.00
20260506070655 49 198 1.0 0.0 0.00 0.00 0.00
20260506062158 50 169 2.0 2.0 0.00 0.00 0.00
20260506060700 50 184 4.0 2.0 0.00 0.00 0.00
20260506050705 50 179 0.0 0.0 0.00 0.00 0.00
20260506043708 51 207 1.0 0.0 0.00 0.00 0.00
20260506042208 50 193 0.0 0.0 0.00 0.00 0.00
20260506040709 51 193 0.0 0.0 0.00 0.00 0.00
20260506035211 49 166 0.0 0.0 0.00 0.00 0.00
20260506033712 49 203 1.0 0.0 0.00 0.00 0.00
20260506032213 50 193 0.0 0.0 0.00 0.00 0.00
20260506030714 52 257 1.0 0.0 0.00 0.00 0.00
20260506023716 54 214 0.0 0.0 0.00 0.00 0.00
20260506022217 54 224 2.0 1.0 0.00 0.00 0.00
20260506020718 53 214 2.0 2.0 0.00 0.00 0.00
20260506015219 53 249 5.0 4.0 0.00 0.00 0.00
20260506013720 52 252 3.0 4.0 0.00 0.00 0.00
20260506005222 65 167 5.0 3.0 0.00 0.00 0.00
20260506002224 63 262 14.0 16.0 0.00 0.00 0.00
20260506000725 64 252 8.0 11.0 0.00 0.00 0.00
20260505235226 66 280 9.0 11.0 0.00 0.00 0.00
20260505233726 66 240 13.0 14.0 0.00 0.00 0.00
20260505232227 69 311 10.0 7.0 0.00 0.00 0.00
20260505230728 69 271 10.0 14.0 0.00 0.00 0.00
20260505225228 70 262 11.0 9.0 0.00 0.00 0.00
20260505223729 70 240 9.0 15.0 0.00 0.00 0.00
20260505222230 69 183 14.0 12.0 0.00 0.00 0.00
20260505220730 70 280 11.0 11.0 0.00 0.00 0.00
20260505205234 69 278 11.0 16.0 0.00 0.00 0.00
20260505203735 68 249 9.0 10.0 0.00 0.00 0.00
20260505202236 66 243 7.0 10.0 0.00 0.00 0.00
20260505192240 64 255 9.0 14.0 0.00 0.00 0.00
20260505185242 63 321 7.0 4.0 0.00 0.00 0.00
20260505183742 62 280 8.0 7.0 0.00 0.00 0.00
20260505180744 60 290 5.0 1.0 0.00 0.00 0.00
20260505175245 60 305 4.0 1.0 0.00 0.00 0.00
20260505173746 57 271 6.0 6.0 0.00 0.00 0.00
20260505170748 54 222 4.0 2.0 0.00 0.00 0.00
20260505165249 53 270 7.0 4.0 0.00 0.00 0.00
20260505163750 55 240 7.0 5.0 0.00 0.00 0.00
20260505162252 58 325 7.0 5.0 0.00 0.00 0.00
20260505160752 60 257 7.0 5.0 0.00 0.00 0.00
20260505152255 59 253 9.0 5.0 0.00 0.00 0.00
20260505150756 59 271 10.0 9.0 0.00 0.00 0.00